Location: Kernascl�den
(48.0062°N, 3.3198°W)
Time: 11:40:54
(UTC+00:00)

Cosmos 1703 - Pass Details

Date: 21 January 2021
Orbit: 524 x 538 km, 82.5° (Epoch: 07 March)

Event Time Altitude Azimuth Distance (km) Brightness Sun altitude
Rises 18:51:02 0° 179° (S) 2,652 6.9 -18.8°
Reaches altitude 10° 18:53:10 10° 176° (S) 1,766 5.9 -19.2°
Maximum altitude 18:56:59 61° 96° (E) 602 3.1 -19.8°
Enters shadow 18:57:14 59° 75° (ENE) 612 3.2 -19.9°
